Flag for Moldova Weather past 2 weeks in Tiraspol, Moldova

Now
46 °F

Overcast.


Feels Like: 41 °F
Forecast: 40 / 46 °F
Wind: 12 mph from South

Location: Chisinau International Airport

Current Time: Mar 2, 2015 at 1:20:37 PM

Latest Report: Mar 2, 2015 at 1:00 PM


Visibility: 6 mi

Pressure: 29.86 "Hg

Humidity: 76%

Dew point: 39 °F

Location of TiraspolLocation

Historic Weather in Tiraspol — Graph

°F

Tiraspol temperature yesterday

Maximum temperature yesterday: 43 °F (at 2:30 PM)
Minimum temperature yesterday: 37 °F (at 3:30 AM)
Average temperature yesterday: 41 °F

Past Weeks' High & Low Weather Summary

 TemperatureHumidityPressure
High55 °F (Feb 27, 3:30 PM)93% (Feb 15, 12:00 PM)30.72 "Hg (Feb 15, 12:00 PM)
Low14 °F (Feb 17, 4:00 AM)25% (Feb 18, 4:30 PM)29.80 "Hg (Feb 24, 2:00 PM)
Average37 °F73%30.14 "Hg
* Reported Feb 15 12:00 Noon — Mar 2 12:00 Noon, Tiraspol, Weather by CustomWeather, © 2015

Note: Actual official high and low records may vary slightly from our data, if they occured in-between our weather recording intervals... More about our weather records

Advertising

Tiraspol weather history for previous 24 hours

 ConditionsComfort  
Time TempWeatherWind HumidityBarometerVisibility
12:00 PM
Mon, Mar 2
45 °FLow clouds.9 mph76%29.89 "Hg4 mi
11:30 AM43 °FLow clouds.12 mph81%29.92 "Hg4 mi
11:00 AM43 °FLow clouds.10 mph81%29.92 "Hg4 mi
10:30 AM43 °FFog.12 mph81%29.92 "Hg3 mi
10:00 AM43 °FFog.13 mph81%29.92 "Hg3 mi
9:30 AM43 °FFog.10 mph81%29.92 "Hg3 mi
9:00 AM43 °FFog.12 mph81%29.92 "Hg3 mi
8:30 AM41 °FFog.12 mph87%29.92 "Hg3 mi
8:00 AM41 °FFog.8 mph87%29.92 "Hg2 mi
7:30 AM41 °FFog.9 mph87%29.92 "Hg2 mi
7:00 AM41 °FFog.9 mph87%29.92 "Hg2 mi
6:30 AM41 °FFog.9 mph87%29.92 "Hg2 mi
6:00 AM41 °FFog.7 mph87%29.92 "Hg3 mi
5:30 AM41 °FFog.13 mph87%29.92 "Hg3 mi
5:00 AM41 °FFog.12 mph87%29.92 "Hg3 mi
4:30 AM41 °FFog.14 mph87%29.92 "Hg3 mi
4:00 AM41 °FDrizzle. Fog.12 mph87%29.95 "Hg2 mi
3:30 AM41 °FDrizzle. Fog.13 mph87%29.95 "Hg2 mi
3:00 AM41 °FDrizzle. Fog.13 mph87%29.95 "Hg2 mi
2:30 AM41 °FDrizzle. Fog.15 mph87%29.98 "Hg2 mi
2:00 AM41 °FDrizzle. Fog.13 mph87%29.98 "Hg2 mi
1:30 AM41 °FDrizzle. Fog.13 mph87%29.98 "Hg2 mi
1:00 AM41 °FFog.12 mph87%29.98 "Hg2 mi
12:30 AM41 °FFog.12 mph87%29.98 "Hg3 mi
12:00 AM41 °FFog.13 mph87%30.01 "Hg2 mi
11:30 PM
Sun, Mar 1
41 °FDrizzle. Fog.14 mph87%30.01 "Hg2 mi
11:00 PM41 °FDrizzle. Fog.12 mph87%30.01 "Hg2 mi
10:30 PM43 °FFog.10 mph81%30.01 "Hg3 mi
10:00 PM43 °FMostly cloudy.9 mph76%30.01 "HgN/A
9:30 PM43 °FMostly cloudy.8 mph76%30.01 "HgN/A
9:00 PM43 °FLight rain. Mostly cloudy.8 mph76%30.04 "HgN/A
8:30 PM43 °FLight rain. Mostly cloudy.9 mph76%30.04 "HgN/A
8:00 PM43 °FOvercast.7 mph76%30.04 "HgN/A
7:30 PM43 °FOvercast.6 mph76%30.04 "HgN/A
7:00 PM43 °FOvercast.6 mph76%30.04 "HgN/A
6:30 PM43 °FOvercast.7 mph76%30.04 "HgN/A
6:00 PM43 °FOvercast.8 mph71%30.04 "HgN/A
5:30 PM43 °FOvercast.7 mph71%30.04 "HgN/A
5:00 PM43 °FOvercast.7 mph71%30.04 "HgN/A
4:30 PM43 °FOvercast.8 mph71%30.04 "HgN/A
4:00 PM43 °FOvercast.7 mph71%30.07 "HgN/A
3:30 PM43 °FOvercast.6 mph66%30.07 "HgN/A
3:00 PM43 °FOvercast.6 mph71%30.07 "HgN/A
2:30 PM43 °FOvercast.5 mph71%30.09 "HgN/A
2:00 PM41 °FOvercast.6 mph76%30.09 "HgN/A
1:30 PM41 °FOvercast.3 mph70%30.09 "HgN/A
1:00 PM41 °FOvercast.5 mph70%30.09 "HgN/A
Weather by CustomWeather, © 2015

See weather overviewHow to use our weather pages